x

Mid Gulf - 180 Nm South Of Southwest Pass, La (42001) Wave Buoy

2:50am - Sun 31st Jul 2016 All times are UTC.

  • Sig Wave height 2.0ft
  • Swell Direction
  • Peak Period 6s
  • Average Period 5s
  • Wind
    2mph, 4mph gusts
  • Sea Temp 88°f
  • Air Temp 86°f
  • Sea Pressure 1017.4mb

More Historic Weather Station data

Upgrade to MSW Pro to gain access to the past 30 days of data for over 8000 Wavebouys and Weather Stations around the globe.

Join Pro

Comparision Forecast

View Surf forecast
   
Sun 07/31 2:50am 2ft 6s 5s 2 4 mph 1017.4mb 88f 86f
1:50am 1.6ft 6s 5s 4 7 mph 1017.1mb 89f 86f
12:50am 2ft 8s 5s 2 4 mph 1016.4mb 89f 86f
Sat 07/30 11:50pm 1.6ft 7s 5s  -  mph 1016.2mb 89f 88f
10:50pm 1.6ft 6s 5s  -  2 mph 1016.4mb 89f 89f
9:50pm 1.6ft 7s 5s 2 4 mph 1016.6mb 89f 87f
8:50pm 2ft 6s 5s  -  2 mph 1016.9mb 89f 87f
7:50pm 1.6ft 6s 5s 4 7 mph 1017.5mb 88f 86f
6:50pm 1.6ft 5s 5s 4 7 mph 1017.8mb 88f 86f
5:50pm 1.6ft 5s 5s 4 7 mph 1018.3mb 88f 86f
4:50pm 1.6ft 7s 5s 4 7 mph 1018.4mb 88f 86f
3:50pm 1.6ft 6s 5s 4
mph
1018.4mb 87f 85f
2:50pm 1.6ft 7s 5s 2
mph
1018.2mb 87f 86f
1:50pm 2ft 6s 5s 4 7 mph 1017.8mb 86f 85f
12:50pm 1.6ft 6s 5s 4
mph
1017.4mb 86f 86f
11:50am 2ft 6s 5s 7
mph
1016.9mb 86f 85f
10:50am 2ft 7s 5s 4 7 mph 1016.5mb 86f 85f
9:50am 2ft 7s 5s 4 7 mph 1016mb 86f 85f
8:50am 2ft 6s 5s 7 9 mph 1015.6mb 86f 85f
7:50am 2ft 8s 5s 7
mph
1015.8mb 86f 85f
5:50am 2.5ft 7s 5s 9 11 mph 1016.2mb 86f 85f
4:50am 2.5ft 7s 5s 9 13 mph 1016.3mb 87f 85f
3:50am 2.5ft 7s 5s 7 9 mph 1016.8mb 87f 85f
2:50am 2.5ft 7s 5s 9 11 mph 1016.7mb 87f 85f
1:50am 2.5ft 6s 5s 9 11 mph 1016.3mb 87f 85f
12:50am 2.5ft 7s 5s 9 11 mph 1016mb 87f 85f
Fri 07/29 11:50pm 2.5ft 6s 5s 7 11 mph 1015.9mb 87f 86f
10:50pm 2.5ft 7s 5s 7 9 mph 1015.8mb 88f 86f
9:50pm 3ft 7s 5s 4 7 mph 1016mb 88f 86f
8:50pm 3ft 7s 5s 4 7 mph 1016.1mb 88f 86f
7:50pm 3.5ft 7s 6s 4 7 mph 1016.6mb 88f 86f
6:50pm 3ft 7s 6s 4 7 mph 1017.3mb 87f 86f
5:50pm 3ft 6s 5s 4
mph
1017.2mb 87f 86f
4:50pm 3.5ft 7s 6s 4 7 mph 1017.3mb 86f 85f
3:50pm 3.5ft 7s 6s 7 9 mph 1017.3mb 86f 85f
2:50pm 3.5ft 7s 5s 4 13 mph 1017.2mb 86f 85f
1:50pm 3.5ft 6s 5s 7
mph
1016.7mb 86f 85f
12:50pm 3.5ft 7s 6s 7 9 mph 1016.2mb 86f 85f
11:50am 3.5ft 8s 5s 11
mph
1015.7mb 86f 85f
10:50am 3.5ft 7s 6s 11 13 mph 1015mb 86f 85f
9:50am 3.5ft 7s 5s 11 13 mph 1015.1mb 86f 85f
8:50am 3.5ft 7s 6s 11 16 mph 1015.1mb 86f 85f
7:50am 3.5ft 8s 6s 11 16 mph 1015.4mb 86f 84f
6:50am 3.5ft 7s 6s 9 11 mph 1015.7mb 86f 85f
5:50am 3.5ft 6s 6s 9
mph
1016.3mb 86f 85f
4:50am 3.5ft 7s 6s 9 11 mph 1016.3mb 86f 85f
3:50am 3.5ft 7s 6s 7
mph
1016.5mb 86f 85f
2:50am 3ft 6s 5s 9 11 mph 1016.2mb 86f 84f
1:50am 3.5ft 6s 5s 11 13 mph 1015.3mb 86f 84f
12:50am 3.5ft 7s 5s 11 13 mph 1015.1mb 86f 84f
Thu 07/28 11:50pm 3.5ft 7s 5s 9 11 mph 1014.7mb 86f 84f
10:50pm 3.5ft 6s 5s 11 16 mph 1014.6mb 86f 84f
9:50pm 3.5ft 7s 5s 11 13 mph 1014.8mb 86f 84f
8:50pm 3.5ft 6s 5s 9 11 mph 1015.2mb 86f 84f
7:50pm 3.5ft 7s 5s 9 11 mph 1015.5mb 86f 83f
6:50pm 3.5ft 6s 5s 9 11 mph 1016.2mb 86f 83f
5:50pm 3.5ft 6s 5s 9
mph
1016.5mb 86f 82f
4:50pm 3.5ft 6s 5s 11 13 mph 1016.7mb 86f 82f
3:50pm 3.5ft 6s 5s 13 16 mph 1017.1mb 86f 84f
2:50pm 3.5ft 6s 5s 9 13 mph 1016.5mb 86f 84f
1:50pm 3.5ft 7s 5s 13 20 mph 1016.9mb 85f 84f
12:50pm 3.5ft 7s 5s 11 13 mph 1016mb 85f 85f
11:50am 3.5ft 5s 5s 9
mph
1015.7mb 85f 85f
10:50am 3ft 7s 5s 11 13 mph 1015.2mb 85f 85f
9:50am 3.5ft 7s 5s 13 16 mph 1015.2mb 85f 85f
8:50am 3ft 5s 5s 16 20 mph 1014.8mb 85f 85f
7:50am 3ft 5s 4s 13 16 mph 1015.4mb 85f 85f
6:50am 3ft 7s 5s 16 18 mph 1015.4mb 86f 85f
5:50am 3ft 6s 5s 13 16 mph 1015.7mb 86f 85f
4:50am 2.5ft 7s 5s 11 13 mph 1016.2mb 86f 85f
3:50am 2.5ft 6s 5s 13 16 mph 1016.2mb 86f 85f
2:50am 3ft 7s 5s 13 16 mph 1016.1mb 86f 85f
1:50am 2.5ft 6s 5s 13 16 mph 1015.7mb 86f 85f
12:50am 2.5ft 6s 5s 13
mph
1015.5mb 86f 85f
Wed 07/27 11:50pm 3ft 6s 5s 13 16 mph 1015mb 86f 86f
10:50pm 3ft 6s 5s 11 13 mph 1015mb 86f 86f
9:50pm 3ft 6s 5s 11
mph
1015.2mb 86f 86f
8:50pm 3ft 6s 5s 9 11 mph 1015.8mb 86f 86f
7:50pm 3ft 6s 5s 11 13 mph 1016.3mb 86f 86f
6:50pm 3ft 6s 5s 11 13 mph 1017mb 86f 86f
5:50pm 2.5ft 6s 4s 11 13 mph 1017.4mb 86f 85f
4:50pm 3ft 6s 5s 13 16 mph 1017.7mb 86f 85f
3:50pm 3ft 6s 5s 11 13 mph 1017.5mb 86f 86f
2:50pm 3ft 6s 5s 7 11 mph 1017mb 86f 85f
1:50pm 3ft 6s 5s 9 11 mph 1016.7mb 86f 86f
12:50pm 3ft 6s 5s 9 11 mph 1016.3mb 85f 85f
11:50am 3ft 6s 5s 11 13 mph 1015.9mb 86f 85f
10:50am 3ft 5s 4s 11
mph
1015.6mb 86f 85f
9:50am 3ft 6s 5s 13 16 mph 1014.9mb 86f 85f
8:50am 3.5ft 5s 5s 11 13 mph 1014.8mb 86f 85f
7:50am 3.5ft 5s 5s 9 13 mph 1014.9mb 86f 85f
6:50am 3ft 6s 5s 11 13 mph 1015.5mb 86f 84f
5:50am 2.5ft 5s 4s 11
mph
1016.1mb 86f 84f
4:50am 2ft 5s 5s 9 11 mph 1016.6mb 86f 83f